Flag for Brazil Weather past 2 weeks in Fortaleza, Ceará, Brazil

Now
79 °F

Passing clouds.


Feels Like: 81 °F
Forecast: 76 / 88 °F
Wind: 12 mph from Northeast

Location: Fortaleza Aeropor-To

Current Time: Aug 28, 2014 at 9:31:15 PM

Latest Report: Aug 28, 2014 at 9:00 PM


Visibility: N/A

Pressure: 29.95 "Hg

Humidity: 74%

Dew point: 70 °F

Location of FortalezaLocation

Historic Weather in Fortaleza — Graph

°F

Fortaleza temperature yesterday

Maximum temperature yesterday: 82 °F (at 10:00 AM)
Minimum temperature yesterday: 75 °F (at 11:00 AM)
Average temperature yesterday: 78 °F

Past Weeks' High & Low Weather Summary

 TemperatureHumidityPressure
High88 °F (Aug 14, 12:00 PM)83% (Aug 21, 3:00 AM)30.04 "Hg (Aug 21, 3:00 AM)
Low72 °F (Aug 16, 6:00 AM)31% (Aug 14, 10:00 AM)29.83 "Hg (Aug 18, 3:00 PM)
Average80 °F63%29.94 "Hg
* Reported Aug 13 8:00 PM — Aug 28 8:00 PM, Fortaleza, Weather by CustomWeather, © 2014

Note: Actual official high and low records may vary slightly from our data, if they occured in-between our weather recording intervals... More about our weather records

Advertising

Fortaleza weather history for previous 24 hours

 ConditionsComfort  
Time TempWeatherWind HumidityBarometerVisibility
8:00 PM
Aug 28
79 °FPassing clouds.12 mph74%29.95 "HgN/A
7:00 PM79 °FPassing clouds.8 mph79%29.92 "HgN/A
6:00 PM79 °FPassing clouds.9 mph74%29.89 "HgN/A
5:00 PM81 °FSunny.13 mph70%29.89 "Hg10 mi
4:00 PM82 °FSunny.13 mph62%29.86 "Hg10 mi
3:00 PM84 °FSunny.18 mph58%29.86 "Hg10 mi
2:00 PM84 °FScattered clouds.21 mph58%29.86 "HgN/A
1:00 PM84 °FScattered clouds.22 mph58%29.89 "HgN/A
12:00 PM84 °FPassing clouds.18 mph58%29.92 "HgN/A
11:00 AM84 °FPartly sunny.17 mph58%29.95 "HgN/A
10:00 AM82 °FBroken clouds.15 mph62%29.95 "HgN/A
9:00 AM81 °FScattered clouds.12 mph62%29.95 "HgN/A
8:00 AM79 °FSunny.10 mph61%29.95 "Hg10 mi
7:00 AM75 °FSunny.8 mph74%29.92 "Hg10 mi
6:00 AM75 °FSunny.7 mph78%29.89 "Hg10 mi
5:00 AM73 °FClear.7 mph83%29.89 "Hg10 mi
4:00 AM75 °FPassing clouds.8 mph78%29.89 "HgN/A
3:00 AM75 °FPassing clouds.7 mph78%29.89 "HgN/A
2:00 AM75 °FPassing clouds.6 mph78%29.89 "HgN/A
1:00 AM75 °FPassing clouds.5 mph78%29.92 "HgN/A
12:00 AM77 °FClear.6 mph74%29.92 "Hg10 mi
11:00 PM
Aug 27
77 °FClear.7 mph74%29.95 "Hg10 mi
10:00 PM77 °FClear.7 mph79%29.95 "Hg10 mi
9:00 PM77 °FPassing clouds.6 mph79%29.95 "HgN/A
Weather by CustomWeather, © 2014

See weather overviewHow to use our weather pages